contact:dominique.lefevre@mio.osupytheas.fr, maurice.libes@osupytheas.fr, didier.mallarino@osupytheas.fr
Project:EMSO http://www.emso-fr.org/EMSO-France
Depth: 2436.0 m
Title:EMSO Ligure Ouest : Data MII capteur MICROCAT
DateTime_Computer,Latitude,Longitude,Temperature,Conductivity,Pressure,DateTime_Instrument
DateTime_Computer,Latitude,Longitude,degC,S m-1,dbar,DateTime_Instrument
2022-10-08T00:01:02Z,42.805,6.029,13.3008,4.60081,2470.507,2022-10-08T02:02:57Z
2022-10-08T00:04:05Z,42.805,6.029,13.3009,4.60074,2470.483,2022-10-08T02:06:00Z
2022-10-08T00:07:08Z,42.805,6.029,13.3011,4.60074,2470.46,2022-10-08T02:09:03Z
2022-10-08T00:10:11Z,42.805,6.029,13.3009,4.60082,2470.507,2022-10-08T02:12:06Z
2022-10-08T00:13:15Z,42.805,6.029,13.3008,4.60079,2470.483,2022-10-08T02:15:09Z
2022-10-08T00:16:18Z,42.805,6.029,13.3010,4.60078,2470.52,2022-10-08T02:18:12Z
2022-10-08T00:19:21Z,42.805,6.029,13.3010,4.60080,2470.507,2022-10-08T02:21:15Z
2022-10-08T00:22:24Z,42.805,6.029,13.3011,4.60062,2470.497,2022-10-08T02:24:18Z
2022-10-08T00:25:27Z,42.805,6.029,13.3014,4.60074,2470.497,2022-10-08T02:27:21Z
2022-10-08T00:28:30Z,42.805,6.029,13.3011,4.60117,2470.46,2022-10-08T02:30:25Z
2022-10-08T00:31:33Z,42.805,6.029,13.3038,4.60068,2470.474,2022-10-08T02:33:28Z
2022-10-08T00:34:36Z,42.805,6.029,13.3012,4.60105,2470.483,2022-10-08T02:36:31Z
2022-10-08T00:37:39Z,42.805,6.029,13.3009,4.60082,2470.497,2022-10-08T02:39:34Z
2022-10-08T00:40:43Z,42.805,6.029,13.3010,4.60057,2470.46,2022-10-08T02:42:37Z
2022-10-08T00:43:46Z,42.805,6.029,13.3010,4.60079,2470.483,2022-10-08T02:45:40Z
2022-10-08T00:46:49Z,42.805,6.029,13.3012,4.60064,2470.52,2022-10-08T02:48:43Z
2022-10-08T00:49:52Z,42.805,6.029,13.3007,4.60094,2470.46,2022-10-08T02:51:46Z
2022-10-08T00:52:55Z,42.805,6.029,13.3009,4.60072,2470.46,2022-10-08T02:54:49Z
2022-10-08T00:55:58Z,42.805,6.029,13.3010,4.60066,2470.437,2022-10-08T02:57:53Z
2022-10-08T00:59:01Z,42.805,6.029,13.3007,4.60087,2470.474,2022-10-08T03:00:56Z
2022-10-08T01:02:04Z,42.805,6.029,13.3009,4.60060,2470.46,2022-10-08T03:03:59Z
2022-10-08T01:05:07Z,42.805,6.029,13.3008,4.60114,2470.46,2022-10-08T03:07:02Z
2022-10-08T01:08:11Z,42.805,6.029,13.3008,4.60086,2470.474,2022-10-08T03:10:05Z
2022-10-08T01:11:14Z,42.805,6.029,13.3011,4.60080,2470.46,2022-10-08T03:13:08Z
2022-10-08T01:14:17Z,42.805,6.029,13.3007,4.60079,2470.45,2022-10-08T03:16:11Z
2022-10-08T01:17:20Z,42.805,6.029,13.3013,4.60079,2470.46,2022-10-08T03:19:14Z
2022-10-08T01:20:23Z,42.805,6.029,13.3011,4.60079,2470.46,2022-10-08T03:22:18Z
2022-10-08T01:23:26Z,42.805,6.029,13.3010,4.60067,2470.483,2022-10-08T03:25:21Z
2022-10-08T01:26:29Z,42.805,6.029,13.3011,4.60062,2470.497,2022-10-08T03:28:24Z
2022-10-08T01:29:32Z,42.805,6.029,13.3010,4.60062,2470.497,2022-10-08T03:31:27Z
2022-10-08T01:32:36Z,42.805,6.029,13.3011,4.60064,2470.474,2022-10-08T03:34:30Z
2022-10-08T01:35:39Z,42.805,6.029,13.3014,4.60064,2470.46,2022-10-08T03:37:33Z
2022-10-08T01:38:42Z,42.805,6.029,13.3012,4.60076,2470.52,2022-10-08T03:40:36Z
2022-10-08T01:41:45Z,42.805,6.029,13.3011,4.60069,2470.483,2022-10-08T03:43:39Z
2022-10-08T01:44:48Z,42.805,6.029,13.3010,4.60063,2470.46,2022-10-08T03:46:42Z
2022-10-08T01:47:51Z,42.805,6.029,13.3013,4.60070,2470.474,2022-10-08T03:49:46Z
2022-10-08T01:50:54Z,42.805,6.029,13.3011,4.60067,2470.52,2022-10-08T03:52:49Z
2022-10-08T01:53:57Z,42.805,6.029,13.3009,4.60062,2470.497,2022-10-08T03:55:52Z
2022-10-08T01:57:00Z,42.805,6.029,13.3008,4.60073,2470.497,2022-10-08T03:58:55Z
2022-10-08T02:00:04Z,42.805,6.029,13.3006,4.60073,2470.46,2022-10-08T04:01:58Z
2022-10-08T02:03:07Z,42.805,6.029,13.3009,4.60070,2470.497,2022-10-08T04:05:01Z
2022-10-08T02:06:10Z,42.805,6.029,13.3009,4.60074,2470.497,2022-10-08T04:08:04Z
2022-10-08T02:09:13Z,42.805,6.029,13.3014,4.60083,2470.483,2022-10-08T04:11:07Z
2022-10-08T02:12:16Z,42.805,6.029,13.3013,4.60072,2470.483,2022-10-08T04:14:10Z
2022-10-08T02:15:19Z,42.805,6.029,13.3011,4.60060,2470.507,2022-10-08T04:17:14Z
2022-10-08T02:18:22Z,42.805,6.029,13.3011,4.60057,2470.483,2022-10-08T04:20:17Z
2022-10-08T02:21:25Z,42.805,6.029,13.3011,4.60064,2470.483,2022-10-08T04:23:20Z
2022-10-08T02:24:28Z,42.805,6.029,13.3011,4.60059,2470.53,2022-10-08T04:26:23Z
2022-10-08T02:27:32Z,42.805,6.029,13.3009,4.60072,2470.507,2022-10-08T04:29:26Z
2022-10-08T02:30:35Z,42.805,6.029,13.3009,4.60063,2470.483,2022-10-08T04:32:29Z
2022-10-08T02:33:38Z,42.805,6.029,13.3019,4.60057,2470.53,2022-10-08T04:35:32Z
2022-10-08T02:36:41Z,42.805,6.029,13.3009,4.60059,2470.507,2022-10-08T04:38:35Z
2022-10-08T02:39:44Z,42.805,6.029,13.3009,4.60061,2470.507,2022-10-08T04:41:39Z
2022-10-08T02:42:47Z,42.805,6.029,13.3011,4.60074,2470.544,2022-10-08T04:44:42Z
2022-10-08T02:45:50Z,42.805,6.029,13.3008,4.60061,2470.53,2022-10-08T04:47:45Z
2022-10-08T02:48:53Z,42.805,6.029,13.3010,4.60062,2470.53,2022-10-08T04:50:48Z
2022-10-08T02:51:57Z,42.805,6.029,13.3008,4.60060,2470.544,2022-10-08T04:53:51Z
2022-10-08T02:55:00Z,42.805,6.029,13.3011,4.60056,2470.553,2022-10-08T04:56:54Z
2022-10-08T02:58:03Z,42.805,6.029,13.3011,4.60057,2470.567,2022-10-08T04:59:57Z
2022-10-08T03:01:06Z,42.805,6.029,13.3013,4.60054,2470.53,2022-10-08T05:03:00Z
2022-10-08T03:04:09Z,42.805,6.029,13.3011,4.60052,2470.507,2022-10-08T05:06:03Z
2022-10-08T03:07:12Z,42.805,6.029,13.3014,4.60053,2470.567,2022-10-08T05:09:06Z
2022-10-08T03:10:15Z,42.805,6.029,13.3012,4.60059,2470.567,2022-10-08T05:12:10Z
2022-10-08T03:13:18Z,42.805,6.029,13.3014,4.60056,2470.591,2022-10-08T05:15:13Z
2022-10-08T03:16:21Z,42.805,6.029,13.3014,4.60053,2470.553,2022-10-08T05:18:16Z
2022-10-08T03:19:25Z,42.805,6.029,13.3013,4.60053,2470.553,2022-10-08T05:21:19Z
2022-10-08T03:22:28Z,42.805,6.029,13.3014,4.60057,2470.591,2022-10-08T05:24:22Z
2022-10-08T03:25:31Z,42.805,6.029,13.3019,4.60056,2470.591,2022-10-08T05:27:25Z
2022-10-08T03:28:34Z,42.805,6.029,13.3014,4.60055,2470.544,2022-10-08T05:30:28Z
2022-10-08T03:31:37Z,42.805,6.029,13.3015,4.60056,2470.553,2022-10-08T05:33:31Z
2022-10-08T03:34:40Z,42.805,6.029,13.3011,4.60057,2470.6,2022-10-08T05:36:35Z
2022-10-08T03:37:43Z,42.805,6.029,13.3025,4.60060,2470.577,2022-10-08T05:39:38Z
2022-10-08T03:40:46Z,42.805,6.029,13.3020,4.60057,2470.577,2022-10-08T05:42:41Z
2022-10-08T03:43:49Z,42.805,6.029,13.3018,4.60078,2470.577,2022-10-08T05:45:44Z
2022-10-08T03:46:53Z,42.805,6.029,13.3015,4.60072,2470.591,2022-10-08T05:48:47Z
2022-10-08T03:49:56Z,42.805,6.029,13.3020,4.60058,2470.577,2022-10-08T05:51:50Z
2022-10-08T03:52:59Z,42.805,6.029,13.3019,4.60064,2470.577,2022-10-08T05:54:53Z
2022-10-08T03:56:02Z,42.805,6.029,13.3011,4.60081,2470.6,2022-10-08T05:57:56Z
2022-10-08T03:59:05Z,42.805,6.029,13.3015,4.60062,2470.577,2022-10-08T06:00:59Z
2022-10-08T04:02:08Z,42.805,6.029,13.3024,4.60067,2470.591,2022-10-08T06:04:03Z
2022-10-08T04:05:11Z,42.805,6.029,13.3020,4.60072,2470.6,2022-10-08T06:07:06Z
2022-10-08T04:08:14Z,42.805,6.029,13.3021,4.60067,2470.624,2022-10-08T06:10:09Z
2022-10-08T04:11:18Z,42.805,6.029,13.3023,4.60074,2470.614,2022-10-08T06:13:12Z
2022-10-08T04:14:21Z,42.805,6.029,13.3024,4.60069,2470.6,2022-10-08T06:16:15Z
2022-10-08T04:17:24Z,42.805,6.029,13.3022,4.60070,2470.577,2022-10-08T06:19:18Z
2022-10-08T04:20:27Z,42.805,6.029,13.3014,4.60079,2470.6,2022-10-08T06:22:21Z
2022-10-08T04:23:30Z,42.805,6.029,13.3013,4.60095,2470.6,2022-10-08T06:25:24Z
2022-10-08T04:26:33Z,42.805,6.029,13.3014,4.60104,2470.6,2022-10-08T06:28:28Z
2022-10-08T04:29:36Z,42.805,6.029,13.3015,4.60083,2470.6,2022-10-08T06:31:31Z
2022-10-08T04:32:39Z,42.805,6.029,13.3014,4.60092,2470.577,2022-10-08T06:34:34Z
2022-10-08T04:35:42Z,42.805,6.029,13.3019,4.60079,2470.6,2022-10-08T06:37:37Z
2022-10-08T04:38:46Z,42.805,6.029,13.3020,4.60064,2470.6,2022-10-08T06:40:40Z
2022-10-08T04:41:49Z,42.805,6.029,13.3015,4.60067,2470.637,2022-10-08T06:43:43Z
2022-10-08T04:44:52Z,42.805,6.029,13.3024,4.60069,2470.624,2022-10-08T06:46:46Z
2022-10-08T04:47:55Z,42.805,6.029,13.3017,4.60058,2470.624,2022-10-08T06:49:49Z
2022-10-08T04:50:58Z,42.805,6.029,13.3021,4.60059,2470.624,2022-10-08T06:52:52Z
2022-10-08T04:54:01Z,42.805,6.029,13.3014,4.60062,2470.6,2022-10-08T06:55:56Z
2022-10-08T04:57:04Z,42.805,6.029,13.3012,4.60075,2470.661,2022-10-08T06:58:59Z
2022-10-08T05:00:07Z,42.805,6.029,13.3013,4.60057,2470.614,2022-10-08T07:02:02Z
2022-10-08T05:03:10Z,42.805,6.029,13.3011,4.60059,2470.637,2022-10-08T07:05:05Z
2022-10-08T05:06:14Z,42.805,6.029,13.3011,4.60059,2470.661,2022-10-08T07:08:08Z
2022-10-08T05:09:17Z,42.805,6.029,13.3006,4.60057,2470.624,2022-10-08T07:11:11Z
2022-10-08T05:12:20Z,42.805,6.029,13.3014,4.60060,2470.6,2022-10-08T07:14:14Z
2022-10-08T05:15:23Z,42.805,6.029,13.3011,4.60062,2470.661,2022-10-08T07:17:17Z
2022-10-08T05:18:26Z,42.805,6.029,13.3014,4.60057,2470.6,2022-10-08T07:20:21Z
2022-10-08T05:21:29Z,42.805,6.029,13.3009,4.60071,2470.67,2022-10-08T07:23:24Z
2022-10-08T05:24:32Z,42.805,6.029,13.3012,4.60062,2470.624,2022-10-08T07:26:27Z
2022-10-08T05:27:35Z,42.805,6.029,13.3011,4.60080,2470.646,2022-10-08T07:29:30Z
2022-10-08T05:30:38Z,42.805,6.029,13.3009,4.60057,2470.624,2022-10-08T07:32:33Z
2022-10-08T05:33:42Z,42.805,6.029,13.3011,4.60070,2470.624,2022-10-08T07:35:36Z
2022-10-08T05:36:45Z,42.805,6.029,13.3009,4.60056,2470.624,2022-10-08T07:38:39Z
2022-10-08T05:39:48Z,42.805,6.029,13.3012,4.60057,2470.637,2022-10-08T07:41:42Z
2022-10-08T05:42:51Z,42.805,6.029,13.3007,4.60055,2470.646,2022-10-08T07:44:45Z
2022-10-08T05:45:54Z,42.805,6.029,13.3006,4.60072,2470.637,2022-10-08T07:47:49Z
2022-10-08T05:48:57Z,42.805,6.029,13.3010,4.60055,2470.637,2022-10-08T07:50:52Z
2022-10-08T05:52:00Z,42.805,6.029,13.3011,4.60063,2470.624,2022-10-08T07:53:55Z
2022-10-08T05:55:03Z,42.805,6.029,13.3006,4.60064,2470.646,2022-10-08T07:56:58Z
2022-10-08T05:58:07Z,42.805,6.029,13.3012,4.60055,2470.646,2022-10-08T08:00:01Z
2022-10-08T06:01:10Z,42.805,6.029,13.3009,4.60056,2470.614,2022-10-08T08:03:04Z
2022-10-08T06:04:13Z,42.805,6.029,13.3014,4.60056,2470.624,2022-10-08T08:06:07Z
2022-10-08T06:07:16Z,42.805,6.029,13.3015,4.60059,2470.637,2022-10-08T08:09:10Z
2022-10-08T06:10:19Z,42.805,6.029,13.3010,4.60058,2470.624,2022-10-08T08:12:13Z
2022-10-08T06:13:22Z,42.805,6.029,13.3013,4.60056,2470.646,2022-10-08T08:15:17Z
2022-10-08T06:16:25Z,42.805,6.029,13.3011,4.60054,2470.646,2022-10-08T08:18:20Z
2022-10-08T06:19:28Z,42.805,6.029,13.3009,4.60068,2470.637,2022-10-08T08:21:23Z
2022-10-08T06:22:31Z,42.805,6.029,13.3009,4.60067,2470.624,2022-10-08T08:24:26Z
2022-10-08T06:25:35Z,42.805,6.029,13.3009,4.60061,2470.624,2022-10-08T08:27:29Z
2022-10-08T06:28:38Z,42.805,6.029,13.3009,4.60062,2470.637,2022-10-08T08:30:32Z
2022-10-08T06:31:41Z,42.805,6.029,13.3011,4.60067,2470.637,2022-10-08T08:33:35Z
2022-10-08T06:34:44Z,42.805,6.029,13.3009,4.60059,2470.624,2022-10-08T08:36:38Z
2022-10-08T06:37:47Z,42.805,6.029,13.3008,4.60063,2470.637,2022-10-08T08:39:42Z
2022-10-08T06:40:50Z,42.805,6.029,13.3006,4.60057,2470.637,2022-10-08T08:42:45Z
2022-10-08T06:43:53Z,42.805,6.029,13.3011,4.60062,2470.624,2022-10-08T08:45:48Z
2022-10-08T06:46:56Z,42.805,6.029,13.3010,4.60056,2470.6,2022-10-08T08:48:51Z
2022-10-08T06:50:00Z,42.805,6.029,13.3015,4.60059,2470.624,2022-10-08T08:51:54Z
2022-10-08T06:53:03Z,42.805,6.029,13.3010,4.60059,2470.624,2022-10-08T08:54:57Z
2022-10-08T06:56:06Z,42.805,6.029,13.3013,4.60064,2470.661,2022-10-08T08:58:00Z
2022-10-08T06:59:09Z,42.805,6.029,13.3010,4.60068,2470.624,2022-10-08T09:01:03Z
2022-10-08T07:02:12Z,42.805,6.029,13.3011,4.60061,2470.624,2022-10-08T09:04:06Z
2022-10-08T07:05:15Z,42.805,6.029,13.3010,4.60073,2470.684,2022-10-08T09:07:10Z
2022-10-08T07:08:18Z,42.805,6.029,13.3011,4.60066,2470.646,2022-10-08T09:10:13Z
2022-10-08T07:11:21Z,42.805,6.029,13.3009,4.60062,2470.624,2022-10-08T09:13:16Z
2022-10-08T07:14:24Z,42.805,6.029,13.3010,4.60062,2470.67,2022-10-08T09:16:19Z
2022-10-08T07:17:28Z,42.805,6.029,13.3009,4.60064,2470.661,2022-10-08T09:19:22Z
2022-10-08T07:20:31Z,42.805,6.029,13.3007,4.60055,2470.6,2022-10-08T09:22:25Z
2022-10-08T07:23:34Z,42.805,6.029,13.3011,4.60057,2470.624,2022-10-08T09:25:28Z
2022-10-08T07:26:37Z,42.805,6.029,13.3011,4.60067,2470.624,2022-10-08T09:28:31Z
2022-10-08T07:29:40Z,42.805,6.029,13.3007,4.60064,2470.6,2022-10-08T09:31:35Z
2022-10-08T07:32:43Z,42.805,6.029,13.3010,4.60061,2470.661,2022-10-08T09:34:38Z
2022-10-08T07:35:46Z,42.805,6.029,13.3009,4.60054,2470.6,2022-10-08T09:37:41Z
2022-10-08T07:38:49Z,42.805,6.029,13.3011,4.60054,2470.661,2022-10-08T09:40:44Z
2022-10-08T07:41:53Z,42.805,6.029,13.3010,4.60053,2470.614,2022-10-08T09:43:47Z
2022-10-08T07:44:56Z,42.805,6.029,13.3008,4.60097,2470.614,2022-10-08T09:46:50Z
2022-10-08T07:47:59Z,42.805,6.029,13.3006,4.60057,2470.6,2022-10-08T09:49:53Z
2022-10-08T07:51:02Z,42.805,6.029,13.3009,4.60059,2470.637,2022-10-08T09:52:56Z
2022-10-08T07:54:05Z,42.805,6.029,13.3013,4.60065,2470.637,2022-10-08T09:55:59Z
2022-10-08T07:57:08Z,42.805,6.029,13.3009,4.60064,2470.614,2022-10-08T09:59:03Z
2022-10-08T08:00:11Z,42.805,6.029,13.3014,4.60081,2470.624,2022-10-08T10:02:06Z
2022-10-08T08:03:14Z,42.805,6.029,13.3041,4.60063,2470.6,2022-10-08T10:05:09Z
2022-10-08T08:06:17Z,42.805,6.029,13.3035,4.60083,2470.614,2022-10-08T10:08:12Z
2022-10-08T08:09:21Z,42.805,6.029,13.3012,4.60071,2470.614,2022-10-08T10:11:15Z
2022-10-08T08:12:24Z,42.805,6.029,13.3015,4.60066,2470.577,2022-10-08T10:14:18Z
2022-10-08T08:15:27Z,42.805,6.029,13.3039,4.60068,2470.637,2022-10-08T10:17:21Z
2022-10-08T08:18:30Z,42.805,6.029,13.3063,4.60076,2470.591,2022-10-08T10:20:24Z
2022-10-08T08:21:33Z,42.805,6.029,13.3083,4.60088,2470.614,2022-10-08T10:23:28Z
2022-10-08T08:24:36Z,42.805,6.029,13.3051,4.60086,2470.577,2022-10-08T10:26:31Z
2022-10-08T08:27:39Z,42.805,6.029,13.3051,4.60102,2470.577,2022-10-08T10:29:34Z
2022-10-08T08:30:42Z,42.805,6.029,13.3043,4.60092,2470.591,2022-10-08T10:32:37Z
2022-10-08T08:33:46Z,42.805,6.029,13.3047,4.60094,2470.577,2022-10-08T10:35:40Z
2022-10-08T08:36:49Z,42.805,6.029,13.3092,4.60106,2470.591,2022-10-08T10:38:43Z
2022-10-08T08:39:52Z,42.805,6.029,13.3075,4.60144,2470.6,2022-10-08T10:41:46Z
2022-10-08T08:42:55Z,42.805,6.029,13.3045,4.60120,2470.577,2022-10-08T10:44:49Z
2022-10-08T08:45:58Z,42.805,6.029,13.3074,4.60095,2470.567,2022-10-08T10:47:52Z
2022-10-08T08:49:01Z,42.805,6.029,13.3058,4.60091,2470.553,2022-10-08T10:50:56Z
2022-10-08T08:52:04Z,42.805,6.029,13.3055,4.60125,2470.553,2022-10-08T10:53:59Z
2022-10-08T08:55:07Z,42.805,6.029,13.3060,4.60112,2470.567,2022-10-08T10:57:02Z
2022-10-08T08:58:11Z,42.805,6.029,13.3048,4.60160,2470.544,2022-10-08T11:00:05Z
2022-10-08T09:01:14Z,42.805,6.029,13.3056,4.60125,2470.53,2022-10-08T11:03:08Z
2022-10-08T09:04:17Z,42.805,6.029,13.3067,4.60119,2470.591,2022-10-08T11:06:11Z
2022-10-08T09:07:20Z,42.805,6.029,13.3045,4.60127,2470.544,2022-10-08T11:09:14Z
2022-10-08T09:10:23Z,42.805,6.029,13.3069,4.60087,2470.567,2022-10-08T11:12:17Z
2022-10-08T09:13:26Z,42.805,6.029,13.3068,4.60129,2470.544,2022-10-08T11:15:21Z
2022-10-08T09:16:29Z,42.805,6.029,13.3070,4.60128,2470.553,2022-10-08T11:18:24Z
2022-10-08T09:19:32Z,42.805,6.029,13.3057,4.60151,2470.53,2022-10-08T11:21:27Z
2022-10-08T09:22:35Z,42.805,6.029,13.3077,4.60079,2470.567,2022-10-08T11:24:30Z
2022-10-08T09:25:39Z,42.805,6.029,13.3071,4.60077,2470.53,2022-10-08T11:27:33Z
2022-10-08T09:28:42Z,42.805,6.029,13.3073,4.60067,2470.553,2022-10-08T11:30:36Z
2022-10-08T09:31:45Z,42.805,6.029,13.3053,4.60080,2470.544,2022-10-08T11:33:39Z
2022-10-08T09:34:48Z,42.805,6.029,13.3059,4.60082,2470.544,2022-10-08T11:36:42Z
2022-10-08T09:37:51Z,42.805,6.029,13.3060,4.60117,2470.544,2022-10-08T11:39:46Z
2022-10-08T09:40:54Z,42.805,6.029,13.3035,4.60120,2470.567,2022-10-08T11:42:49Z
2022-10-08T09:43:57Z,42.805,6.029,13.3045,4.60104,2470.53,2022-10-08T11:45:52Z
2022-10-08T09:47:00Z,42.805,6.029,13.3061,4.60127,2470.553,2022-10-08T11:48:55Z
2022-10-08T09:50:04Z,42.805,6.029,13.3076,4.60123,2470.544,2022-10-08T11:51:58Z
2022-10-08T09:53:07Z,42.805,6.029,13.3063,4.60110,2470.544,2022-10-08T11:55:01Z
2022-10-08T09:56:10Z,42.805,6.029,13.3040,4.60103,2470.53,2022-10-08T11:58:04Z
2022-10-08T09:59:13Z,42.805,6.029,13.3047,4.60136,2470.544,2022-10-08T12:01:07Z
2022-10-08T10:02:16Z,42.805,6.029,13.3062,4.60122,2470.544,2022-10-08T12:04:11Z
2022-10-08T10:05:19Z,42.805,6.029,13.3054,4.60122,2470.53,2022-10-08T12:07:14Z
2022-10-08T10:08:22Z,42.805,6.029,13.3051,4.60134,2470.544,2022-10-08T12:10:17Z
2022-10-08T10:11:25Z,42.805,6.029,13.3073,4.60087,2470.544,2022-10-08T12:13:20Z
2022-10-08T10:14:29Z,42.805,6.029,13.3066,4.60079,2470.52,2022-10-08T12:16:23Z
2022-10-08T10:17:32Z,42.805,6.029,13.3074,4.60141,2470.53,2022-10-08T12:19:26Z
2022-10-08T10:20:35Z,42.805,6.029,13.3075,4.60101,2470.53,2022-10-08T12:22:29Z
2022-10-08T10:23:38Z,42.805,6.029,13.3066,4.60074,2470.53,2022-10-08T12:25:32Z
2022-10-08T10:26:41Z,42.805,6.029,13.3099,4.60114,2470.544,2022-10-08T12:28:35Z
2022-10-08T10:29:44Z,42.805,6.029,13.3091,4.60079,2470.483,2022-10-08T12:31:39Z
2022-10-08T10:32:47Z,42.805,6.029,13.3115,4.60132,2470.483,2022-10-08T12:34:42Z
2022-10-08T10:35:50Z,42.805,6.029,13.3031,4.60082,2470.483,2022-10-08T12:37:45Z
2022-10-08T10:38:54Z,42.805,6.029,13.3063,4.60064,2470.52,2022-10-08T12:40:48Z
2022-10-08T10:41:57Z,42.805,6.029,13.3032,4.60064,2470.507,2022-10-08T12:43:51Z
2022-10-08T10:45:00Z,42.805,6.029,13.3046,4.60069,2470.507,2022-10-08T12:46:54Z
2022-10-08T10:48:03Z,42.805,6.029,13.3053,4.60062,2470.507,2022-10-08T12:49:57Z
2022-10-08T10:51:06Z,42.805,6.029,13.3059,4.60069,2470.483,2022-10-08T12:53:00Z
2022-10-08T10:54:09Z,42.805,6.029,13.3055,4.60063,2470.497,2022-10-08T12:56:04Z
2022-10-08T10:57:12Z,42.805,6.029,13.3055,4.60102,2470.53,2022-10-08T12:59:07Z
2022-10-08T11:00:15Z,42.805,6.029,13.3063,4.60072,2470.483,2022-10-08T13:02:10Z
2022-10-08T11:03:18Z,42.805,6.029,13.3063,4.60089,2470.507,2022-10-08T13:05:13Z
2022-10-08T11:06:22Z,42.805,6.029,13.3085,4.60079,2470.507,2022-10-08T13:08:16Z
2022-10-08T11:09:25Z,42.805,6.029,13.3076,4.60104,2470.483,2022-10-08T13:11:19Z
2022-10-08T11:12:28Z,42.805,6.029,13.3084,4.60090,2470.483,2022-10-08T13:14:22Z
2022-10-08T11:15:31Z,42.805,6.029,13.3078,4.60089,2470.483,2022-10-08T13:17:25Z
2022-10-08T11:18:34Z,42.805,6.029,13.3071,4.60087,2470.483,2022-10-08T13:20:29Z
2022-10-08T11:21:37Z,42.805,6.029,13.3042,4.60085,2470.483,2022-10-08T13:23:32Z
2022-10-08T11:24:40Z,42.805,6.029,13.3018,4.60126,2470.52,2022-10-08T13:26:35Z
2022-10-08T11:27:43Z,42.805,6.029,13.3168,4.60129,2470.497,2022-10-08T13:29:38Z
2022-10-08T11:30:47Z,42.805,6.029,13.3224,4.60143,2470.497,2022-10-08T13:32:41Z
2022-10-08T11:33:50Z,42.805,6.029,13.3014,4.60075,2470.483,2022-10-08T13:35:44Z
2022-10-08T11:36:53Z,42.805,6.029,13.3015,4.60080,2470.46,2022-10-08T13:38:47Z
2022-10-08T11:39:56Z,42.805,6.029,13.3023,4.60098,2470.483,2022-10-08T13:41:50Z
2022-10-08T11:42:59Z,42.805,6.029,13.3078,4.60081,2470.483,2022-10-08T13:44:54Z
2022-10-08T11:46:02Z,42.805,6.029,13.3136,4.60093,2470.507,2022-10-08T13:47:57Z
2022-10-08T11:49:05Z,42.805,6.029,13.3037,4.60093,2470.45,2022-10-08T13:51:00Z
2022-10-08T11:52:08Z,42.805,6.029,13.3016,4.60102,2470.497,2022-10-08T13:54:03Z
2022-10-08T11:55:12Z,42.805,6.029,13.3026,4.60069,2470.507,2022-10-08T13:57:06Z
2022-10-08T11:58:15Z,42.805,6.029,13.3027,4.60093,2470.46,2022-10-08T14:00:09Z
2022-10-08T12:01:18Z,42.805,6.029,13.3025,4.60137,2470.474,2022-10-08T14:03:12Z
2022-10-08T12:04:21Z,42.805,6.029,13.3021,4.60104,2470.483,2022-10-08T14:06:15Z
2022-10-08T12:07:24Z,42.805,6.029,13.3042,4.60079,2470.474,2022-10-08T14:09:19Z
2022-10-08T12:10:27Z,42.805,6.029,13.3036,4.60082,2470.46,2022-10-08T14:12:22Z
2022-10-08T12:13:30Z,42.805,6.029,13.3030,4.60066,2470.497,2022-10-08T14:15:25Z
2022-10-08T12:16:33Z,42.805,6.029,13.3044,4.60063,2470.46,2022-10-08T14:18:28Z
2022-10-08T12:19:37Z,42.805,6.029,13.3043,4.60064,2470.474,2022-10-08T14:21:31Z
2022-10-08T12:22:40Z,42.805,6.029,13.3044,4.60067,2470.46,2022-10-08T14:24:34Z
2022-10-08T12:25:43Z,42.805,6.029,13.3030,4.60063,2470.46,2022-10-08T14:27:37Z
2022-10-08T12:28:46Z,42.805,6.029,13.3029,4.60076,2470.497,2022-10-08T14:30:40Z
2022-10-08T12:31:49Z,42.805,6.029,13.3011,4.60090,2470.46,2022-10-08T14:33:43Z
2022-10-08T12:34:52Z,42.805,6.029,13.3017,4.60067,2470.437,2022-10-08T14:36:47Z
2022-10-08T12:37:55Z,42.805,6.029,13.3034,4.60059,2470.497,2022-10-08T14:39:50Z
2022-10-08T12:40:58Z,42.805,6.029,13.3040,4.60057,2470.474,2022-10-08T14:42:53Z
2022-10-08T12:44:02Z,42.805,6.029,13.3041,4.60069,2470.46,2022-10-08T14:45:56Z
2022-10-08T12:47:05Z,42.805,6.029,13.3041,4.60082,2470.46,2022-10-08T14:48:59Z
2022-10-08T12:50:08Z,42.805,6.029,13.3032,4.60094,2470.46,2022-10-08T14:52:02Z
2022-10-08T12:53:11Z,42.805,6.029,13.3051,4.60076,2470.497,2022-10-08T14:55:05Z
2022-10-08T12:56:14Z,42.805,6.029,13.3046,4.60085,2470.46,2022-10-08T14:58:08Z
2022-10-08T12:59:17Z,42.805,6.029,13.3041,4.60095,2470.46,2022-10-08T15:01:12Z
2022-10-08T13:02:20Z,42.805,6.029,13.3032,4.60114,2470.437,2022-10-08T15:04:15Z
2022-10-08T13:05:23Z,42.805,6.029,13.3043,4.60119,2470.483,2022-10-08T15:07:18Z
2022-10-08T13:08:26Z,42.805,6.029,13.3056,4.60088,2470.46,2022-10-08T15:10:21Z
2022-10-08T13:11:30Z,42.805,6.029,13.3063,4.60084,2470.507,2022-10-08T15:13:24Z
2022-10-08T13:14:33Z,42.805,6.029,13.3080,4.60110,2470.483,2022-10-08T15:16:27Z
2022-10-08T13:17:36Z,42.805,6.029,13.3073,4.60107,2470.437,2022-10-08T15:19:30Z
2022-10-08T13:20:39Z,42.805,6.029,13.3080,4.60104,2470.45,2022-10-08T15:22:33Z
2022-10-08T13:23:42Z,42.805,6.029,13.3080,4.60108,2470.507,2022-10-08T15:25:37Z
2022-10-08T13:26:45Z,42.805,6.029,13.3073,4.60113,2470.52,2022-10-08T15:28:40Z
2022-10-08T13:29:48Z,42.805,6.029,13.3058,4.60139,2470.497,2022-10-08T15:31:43Z
2022-10-08T13:32:51Z,42.805,6.029,13.3057,4.60135,2470.511,2022-10-08T15:34:46Z
2022-10-08T13:35:55Z,42.805,6.029,13.3071,4.60117,2470.497,2022-10-08T15:37:49Z
2022-10-08T13:38:58Z,42.805,6.029,13.3073,4.60125,2470.52,2022-10-08T15:40:52Z
2022-10-08T13:42:01Z,42.805,6.029,13.3091,4.60119,2470.497,2022-10-08T15:43:55Z
2022-10-08T13:45:04Z,42.805,6.029,13.3082,4.60128,2470.497,2022-10-08T15:46:58Z
2022-10-08T13:48:07Z,42.805,6.029,13.3097,4.60114,2470.474,2022-10-08T15:50:02Z
2022-10-08T13:51:10Z,42.805,6.029,13.3095,4.60103,2470.497,2022-10-08T15:53:05Z
2022-10-08T13:54:13Z,42.805,6.029,13.3104,4.60110,2470.507,2022-10-08T15:56:08Z
2022-10-08T13:57:16Z,42.805,6.029,13.3106,4.60107,2470.474,2022-10-08T15:59:11Z
2022-10-08T14:00:20Z,42.805,6.029,13.3106,4.60102,2470.507,2022-10-08T16:02:14Z
2022-10-08T14:03:23Z,42.805,6.029,13.3104,4.60108,2470.497,2022-10-08T16:05:17Z
2022-10-08T14:06:26Z,42.805,6.029,13.3113,4.60114,2470.567,2022-10-08T16:08:20Z
2022-10-08T14:09:29Z,42.805,6.029,13.3113,4.60119,2470.483,2022-10-08T16:11:23Z
2022-10-08T14:12:32Z,42.805,6.029,13.3111,4.60131,2470.497,2022-10-08T16:14:26Z
2022-10-08T14:15:35Z,42.805,6.029,13.3013,4.60155,2470.52,2022-10-08T16:17:30Z
2022-10-08T14:18:38Z,42.805,6.029,13.3011,4.60133,2470.497,2022-10-08T16:20:33Z
2022-10-08T14:21:41Z,42.805,6.029,13.3007,4.60092,2470.52,2022-10-08T16:23:36Z
2022-10-08T14:24:44Z,42.805,6.029,13.3006,4.60088,2470.544,2022-10-08T16:26:39Z
2022-10-08T14:27:48Z,42.805,6.029,13.3011,4.60079,2470.52,2022-10-08T16:29:42Z
2022-10-08T14:30:51Z,42.805,6.029,13.3007,4.60072,2470.53,2022-10-08T16:32:45Z
2022-10-08T14:33:54Z,42.805,6.029,13.3010,4.60069,2470.544,2022-10-08T16:35:48Z
2022-10-08T14:36:57Z,42.805,6.029,13.3008,4.60078,2470.507,2022-10-08T16:38:51Z
2022-10-08T14:40:00Z,42.805,6.029,13.3012,4.60082,2470.567,2022-10-08T16:41:55Z
2022-10-08T14:43:03Z,42.805,6.029,13.3004,4.60077,2470.553,2022-10-08T16:44:58Z
2022-10-08T14:46:06Z,42.805,6.029,13.3009,4.60084,2470.553,2022-10-08T16:48:01Z
2022-10-08T14:49:09Z,42.805,6.029,13.3014,4.60074,2470.567,2022-10-08T16:51:04Z
2022-10-08T14:52:13Z,42.805,6.029,13.3007,4.60071,2470.567,2022-10-08T16:54:07Z
2022-10-08T14:55:16Z,42.805,6.029,13.3010,4.60072,2470.544,2022-10-08T16:57:10Z
2022-10-08T14:58:19Z,42.805,6.029,13.3004,4.60064,2470.53,2022-10-08T17:00:13Z
2022-10-08T15:01:22Z,42.805,6.029,13.3008,4.60069,2470.553,2022-10-08T17:03:16Z